Torna al catalogo

FREGAT DEB

LostHEO
NORAD 45895·DEBRIS·🇷🇺 Russia

Lanciato Jul 18, 2011 da Baikonur Cosmodrome

Loading…

Prossimi Passaggi (prossime 24 ore)

TLE

ObsoletoSource: Space-Track

Epoca: Aug 25, 2020, 10:31 UTC

1 45895U 11037DQ  20238.43834888  .00027598  00000-0  34133-1 0  9990
2 45895  51.4483 263.2106 2715420 118.3273 271.7473  9.27229423  4368

Traccia FREGAT DEB in tempo reale con AllMySat

Download on the App Store